ECMWFFLT1_250_spd_156.txt.gz
Wind_Speed
48 47 46 44 43 42 40 38 35 35 34 29 26 25 26 29 29 26 22 21 23 28 34 37 36 34 34 33 35 38 38 36 36 35 31 30 34 40 42 39 37 39 41 41 40 38 37 39 42 44 45 46 48 49 51 52 52 52 52 51 52 51 50
47 47 47 46 45 44 43 40 37 35 34 30 30 29 28 29 29 25 19 17 23 31 37 39 37 35 34 34 37 39 37 36 36 32 31 35 41 41 39 38 40 43 43 42 41 39 38 39 41 43 44 46 48 50 51 51 53 53 53 53 52 51 49
45 47 48 48 46 46 44 42 39 35 32 32 33 32 31 31 32 29 22 20 28 36 39 40 39 37 35 35 37 37 37 36 32 31 36 41 42 38 38 41 44 45 44 43 41 40 40 40 41 41 43 45 48 51 51 51 52 53 53 53 53 51 48
43 46 48 48 47 46 44 43 39 34 32 35 37 35 34 34 35 32 25 25 34 39 40 40 38 36 35 34 36 39 39 35 33 38 42 41 38 37 39 43 44 44 44 42 41 41 41 40 41 42 43 45 48 50 51 51 52 53 53 53 52 50 47
41 43 45 46 46 45 43 42 37 33 35 39 40 40 37 36 38 36 33 34 38 39 40 39 37 35 35 37 39 42 42 38 38 43 41 37 37 38 41 43 43 44 43 41 41 41 39 40 42 44 44 46 48 49 51 52 52 52 52 51 49 47 46
39 41 42 44 43 42 42 40 35 35 42 44 43 42 40 39 41 42 42 41 41 40 40 39 38 37 39 42 44 46 45 42 43 43 37 36 38 40 42 42 44 45 44 43 42 39 37 40 43 44 45 46 47 47 50 53 53 52 52 50 47 46 45
38 39 40 41 41 40 39 37 35 40 46 46 44 42 40 41 44 46 47 45 44 44 44 43 42 42 44 46 47 48 45 43 45 42 35 36 39 40 41 42 44 45 45 45 42 37 38 41 42 43 45 45 45 46 48 51 52 51 51 50 47 45 45
37 38 38 38 39 39 38 35 36 42 46 47 46 43 41 42 44 46 48 48 47 47 47 47 45 45 47 48 49 47 43 44 45 39 35 38 39 39 40 42 44 44 46 45 40 38 39 40 41 43 44 44 45 46 47 49 51 50 49 47 46 45 46
35 36 36 36 37 40 40 38 38 41 44 46 46 44 43 44 44 44 47 48 49 49 47 46 45 45 46 46 44 43 43 45 42 37 37 40 39 38 40 43 43 44 46 44 40 39 39 39 40 41 42 43 45 47 49 50 51 50 48 46 44 44 46
34 35 35 36 37 40 42 43 43 43 42 44 46 45 45 45 43 44 46 47 48 47 45 42 42 42 42 40 39 41 43 42 38 37 39 40 39 40 42 43 44 46 47 43 41 40 39 39 39 40 41 43 46 50 52 52 51 50 47 44 43 45 46
33 33 33 35 37 39 41 42 43 44 45 45 46 46 46 44 42 42 44 46 45 42 39 39 38 38 39 39 39 41 41 39 38 39 41 40 39 41 44 45 46 48 46 42 40 40 40 40 40 40 42 44 48 52 54 54 52 48 46 43 44 45 45
33 32 32 35 38 38 40 40 40 42 45 45 44 44 44 44 43 42 43 44 43 40 38 38 38 38 39 39 38 39 38 38 40 41 41 41 41 43 46 46 47 48 45 42 41 40 40 41 42 43 44 46 50 53 54 54 52 48 45 44 45 46 46
32 31 31 34 38 39 39 38 38 42 45 44 42 43 43 44 42 39 39 42 42 41 40 40 40 42 41 40 39 39 39 39 42 43 42 43 43 45 47 47 47 48 45 42 41 40 41 42 44 45 46 48 51 53 53 54 51 47 45 45 46 46 47
31 31 31 32 37 40 40 36 36 42 46 44 42 41 42 43 41 37 37 40 41 42 43 43 44 45 44 43 43 43 44 44 44 43 44 45 44 45 46 46 47 48 46 43 41 41 41 43 45 46 47 49 52 53 53 53 50 47 47 47 47 47 49
31 31 32 34 37 40 40 37 37 43 46 46 44 41 42 43 41 39 40 41 42 44 45 45 46 46 46 47 47 47 47 46 44 43 45 46 45 46 47 47 48 49 46 43 43 42 42 45 46 46 48 51 52 53 53 51 49 48 48 49 48 49 50
32 31 32 35 38 40 42 41 41 44 47 49 48 44 45 46 45 44 44 44 45 46 48 48 48 48 49 50 49 47 46 44 43 44 46 46 47 48 49 49 49 49 45 44 44 44 45 47 46 46 49 52 52 52 52 50 49 49 49 49 49 50 52
34 34 32 34 36 40 44 45 44 45 46 48 49 47 47 49 48 47 47 47 49 50 51 50 50 51 52 54 52 48 46 46 45 45 46 47 47 50 51 51 50 48 45 45 46 47 48 48 46 47 51 52 52 52 52 50 50 50 50 50 51 52 54
37 38 36 33 34 39 44 46 47 49 48 47 49 50 51 51 51 48 47 48 50 53 53 51 51 52 53 54 53 50 49 48 47 46 46 47 49 51 52 52 51 49 47 48 49 48 47 46 47 50 53 53 53 53 52 52 52 51 51 52 52 53 55
37 39 39 35 34 37 42 46 47 49 52 52 50 50 51 53 53 50 48 47 48 49 51 50 51 52 52 52 52 50 49 49 48 48 48 50 52 52 51 53 53 51 49 51 49 46 45 46 49 52 54 54 54 54 54 53 52 52 52 53 54 55 57
37 39 40 38 36 37 40 43 44 45 48 53 54 52 50 51 52 52 51 51 49 49 49 50 52 54 53 52 51 49 48 48 48 49 50 52 53 52 52 54 54 51 52 51 47 45 46 49 52 54 56 56 55 55 55 53 53 53 53 54 55 57 60
37 39 40 41 39 39 39 42 43 43 45 50 54 55 52 52 52 52 53 54 53 51 51 52 54 54 53 50 47 46 46 47 49 50 51 51 52 53 55 55 53 53 53 49 46 46 49 52 54 56 57 57 56 56 55 53 53 53 54 55 56 59 62
38 40 41 42 42 41 42 43 45 45 45 48 52 54 53 52 52 52 53 53 53 52 50 50 51 51 50 48 46 44 44 46 48 50 51 52 53 55 56 56 56 55 51 47 47 50 53 55 57 58 58 58 57 57 55 53 53 53 54 56 58 61 64
37 41 41 43 45 45 43 44 46 47 46 47 49 51 52 51 51 50 49 49 50 49 49 50 51 52 51 49 48 47 46 47 49 51 52 53 55 56 57 57 56 52 48 48 50 53 56 58 59 59 59 58 58 57 55 53 53 54 55 57 59 63 64
35 40 42 42 44 47 45 44 46 48 47 47 48 50 51 51 50 50 49 48 49 49 50 52 52 53 52 50 51 51 50 49 50 51 52 54 56 58 58 57 54 50 49 51 54 57 60 61 59 59 59 59 58 57 54 53 53 54 56 58 62 65 64
34 38 42 42 43 46 47 47 48 48 48 49 50 52 53 53 53 52 51 50 50 51 52 52 52 52 52 52 53 52 49 48 50 52 54 56 58 59 58 55 54 53 53 55 58 61 62 61 59 59 60 59 58 56 54 53 53 55 58 61 64 65 63
34 37 41 43 44 45 48 50 51 50 50 50 51 52 53 55 54 53 52 51 51 51 52 52 51 51 51 52 52 51 50 51 52 54 56 58 58 58 57 56 55 54 56 59 62 63 62 60 59 60 60 59 58 56 55 54 55 58 61 64 65 64 62
34 36 39 42 44 45 48 51 51 51 51 51 51 52 53 54 55 54 53 52 52 52 52 52 52 50 49 50 51 52 53 54 56 57 58 58 58 59 58 57 56 57 59 63 64 64 62 61 60 60 59 58 57 56 55 56 58 61 63 65 65 62 63
33 35 38 42 43 45 48 51 51 51 51 51 51 52 53 54 56 56 56 55 55 54 54 53 52 51 50 50 51 52 54 56 57 59 60 60 60 60 59 57 58 61 64 65 65 64 62 61 60 59 58 56 55 56 57 59 61 64 65 65 63 63 66
34 34 36 40 43 45 50 53 52 51 53 53 52 52 53 54 56 57 57 58 57 56 56 55 54 53 52 52 53 54 56 58 59 60 61 60 60 59 59 60 63 65 66 66 65 63 62 60 59 58 56 55 55 57 59 62 64 66 66 64 63 65 68
33 34 35 39 42 45 51 55 54 51 52 54 54 54 54 55 56 57 58 58 58 58 57 57 56 55 55 55 56 57 58 59 59 59 59 59 59 60 62 64 66 66 66 66 65 63 61 59 57 55 54 55 57 59 62 64 66 65 64 63 64 67 70
33 33 34 37 41 45 50 56 58 54 51 52 54 55 56 56 57 58 59 59 59 59 59 59 58 58 58 58 60 61 61 61 60 60 61 62 63 65 66 67 66 66 66 66 64 61 58 55 53 52 54 56 59 61 64 65 65 63 62 64 67 70 72
33 33 34 36 40 43 48 54 60 60 55 50 50 52 55 57 58 59 60 60 60 60 61 61 61 61 61 62 62 63 64 65 65 65 66 67 68 68 68 68 68 67 66 63 60 57 54 52 52 53 56 58 60 63 65 65 63 61 63 66 69 71 73
35 34 34 35 38 42 45 50 57 62 60 54 51 50 52 54 57 59 61 61 62 62 63 64 64 65 65 65 65 65 66 67 68 68 69 70 70 70 70 69 68 65 62 58 54 52 51 52 54 56 57 59 62 64 64 63 62 62 65 68 70 72 75
36 35 35 35 37 40 43 47 52 57 59 58 55 52 51 52 55 57 59 61 63 65 66 66 67 68 68 69 69 68 68 69 70 70 71 71 71 71 70 68 63 58 54 52 50 50 52 54 56 57 59 61 63 64 63 62 63 65 68 70 72 75 77
36 36 36 36 37 38 41 44 47 52 56 58 56 53 51 52 53 54 56 59 62 64 65 66 67 69 70 70 71 72 72 73 73 73 72 71 70 68 65 60 55 52 50 50 50 52 54 56 58 59 60 63 64 64 63 63 64 67 69 72 74 77 79
37 37 37 37 37 38 39 42 45 48 52 55 56 55 53 50 50 52 53 55 58 60 61 63 64 66 68 69 69 69 68 68 67 65 64 62 60 58 54 51 50 49 50 51 52 54 56 58 60 61 63 65 64 63 63 63 66 69 71 73 76 78 79
38 38 38 38 38 38 38 40 43 46 49 50 53 56 56 51 48 48 51 54 54 53 51 51 52 54 55 56 55 54 53 52 52 51 51 51 50 49 47 47 49 50 51 53 55 56 58 60 62 64 65 64 63 62 63 65 67 70 73 75 78 78 79

ECMWFFLT1_250_spd_162.txt.gz
Wind_Speed
33 34 36 38 40 42 44 45 46 47 49 51 54 53 48 45 41 40 40 41 41 38 37 37 38 37 33 27 27 32 37 39 37 34 31 29 29 29 30 31 33 32 29 29 31 31 31 30 30 31 31 31 31 31 32 33 34 36 37 37 37 37 38
30 32 34 36 39 42 44 44 45 46 49 53 56 53 49 46 43 41 41 42 41 39 38 39 40 39 35 31 29 31 34 37 37 34 32 30 30 31 32 32 33 32 30 30 32 33 32 32 32 33 33 33 32 32 33 34 35 36 37 38 39 39 40
27 29 31 34 37 40 43 44 45 46 48 52 54 52 50 49 46 43 42 42 42 40 38 38 40 39 37 34 31 31 33 34 34 34 34 34 33 34 35 35 34 32 32 33 33 33 34 33 34 34 35 35 34 34 34 35 35 36 38 39 40 41 42
26 28 29 32 36 39 42 43 44 46 47 50 51 49 48 49 48 46 44 43 43 41 38 38 40 39 38 36 33 31 32 32 33 35 36 36 36 37 37 36 35 34 34 35 34 34 35 35 36 36 36 36 35 35 36 36 36 37 39 40 41 42 43
25 27 29 31 35 38 40 41 44 46 47 48 49 48 46 47 48 47 46 45 44 42 40 40 42 42 41 39 36 34 34 34 34 35 37 38 38 38 37 36 36 35 36 37 37 36 36 36 37 38 37 36 36 36 37 37 37 39 40 41 41 42 43
24 26 28 31 34 36 37 39 43 46 47 47 48 49 48 48 47 46 46 47 46 43 41 41 44 45 45 43 40 37 37 38 38 37 37 39 39 39 37 36 37 38 39 41 40 38 36 37 38 39 38 38 38 38 39 38 38 40 41 42 42 43 44
23 25 27 29 32 34 35 37 41 45 46 47 48 50 51 50 47 46 46 47 47 45 43 43 44 46 46 44 42 40 38 38 39 39 39 40 39 39 39 38 38 40 41 42 40 37 36 37 38 39 39 40 40 41 41 40 40 40 42 43 43 44 46
23 24 25 27 30 32 33 36 40 43 45 46 47 49 51 52 49 47 46 46 46 46 45 45 46 46 46 45 43 41 40 38 39 41 42 41 40 40 41 41 41 42 43 43 39 36 35 35 36 38 40 42 43 44 43 42 42 42 42 44 45 46 48
22 23 24 26 28 30 32 35 38 41 42 43 45 48 51 52 51 48 47 47 47 47 47 47 47 48 47 47 45 44 43 43 43 44 45 44 43 43 43 44 45 46 46 44 41 37 35 34 36 39 43 45 45 45 44 44 43 43 44 44 46 47 48
22 23 24 25 26 28 30 33 36 37 39 41 43 45 48 51 52 50 48 48 48 48 49 49 49 50 50 50 49 48 48 48 47 47 46 45 44 44 45 47 48 48 47 46 43 40 38 38 40 42 44 46 46 45 45 45 44 44 45 46 48 48 48
21 22 23 24 25 27 29 31 33 35 37 39 41 43 45 47 50 51 50 50 49 50 50 50 50 50 51 51 52 52 52 52 51 49 48 47 47 47 47 48 48 47 46 45 43 42 41 42 43 44 46 46 46 46 47 47 46 46 47 49 50 49 48
21 21 22 24 24 25 27 30 32 34 35 36 38 40 41 43 46 50 51 51 51 51 51 51 52 52 53 53 53 53 53 53 52 51 50 50 50 49 49 48 47 45 44 43 43 43 44 44 45 46 48 48 47 48 48 48 47 48 49 50 50 50 49
20 20 21 23 24 25 26 27 30 32 33 34 35 37 38 40 42 45 49 50 50 51 52 51 51 52 53 55 55 54 54 53 52 52 52 52 51 51 51 50 48 46 45 44 44 45 45 46 47 48 50 50 49 48 48 48 48 50 50 50 50 49 49
19 19 20 22 24 25 25 26 27 29 31 32 32 33 34 36 38 40 43 46 48 49 50 51 52 52 53 53 53 54 55 55 54 53 53 52 52 53 53 52 50 48 47 46 46 47 47 48 48 50 52 51 50 49 48 49 50 51 50 50 49 49 50
18 18 20 21 23 24 25 25 25 26 28 29 29 29 30 31 32 33 34 39 44 45 45 44 45 48 51 52 52 53 54 55 55 55 54 53 53 53 53 52 51 50 49 48 48 48 49 49 50 52 53 52 51 50 50 50 51 50 49 49 49 49 51
18 18 20 21 21 23 24 25 24 24 25 26 25 25 24 23 26 29 31 36 43 46 44 39 37 39 45 50 52 54 54 54 55 55 55 55 54 54 53 52 51 50 49 49 48 48 50 51 52 53 53 53 52 52 51 51 50 49 48 49 50 51 52
19 19 20 21 21 22 24 25 24 23 23 22 22 22 18 18 24 32 34 35 39 42 43 42 43 44 47 51 53 55 55 55 55 56 56 56 55 53 51 50 50 49 49 48 49 50 51 52 54 54 54 54 54 53 52 51 49 49 49 50 51 53 55
19 19 20 20 20 21 23 24 24 23 22 20 20 21 19 21 30 38 38 35 34 36 39 43 47 50 53 55 55 55 55 54 54 55 56 56 55 53 50 48 48 49 49 50 50 51 53 54 55 55 55 55 55 53 52 50 49 49 50 51 53 55 56
19 20 20 20 20 20 21 23 24 23 22 20 19 21 22 26 32 38 38 36 35 37 40 44 48 50 53 55 54 54 55 55 54 55 55 55 55 53 51 50 50 51 51 52 52 52 53 54 55 56 55 55 55 53 51 50 50 50 52 54 55 56 58
20 20 20 19 19 19 20 22 23 23 22 20 20 21 23 26 30 35 37 37 38 40 43 46 48 49 50 51 51 51 52 53 53 54 54 54 55 55 55 54 54 54 54 53 52 51 52 54 55 54 54 54 54 52 51 51 51 52 54 56 57 58 60
20 20 20 19 19 18 19 21 22 22 22 21 21 22 22 25 32 37 39 39 40 43 45 48 49 48 48 48 48 50 50 50 51 52 53 54 55 57 57 57 56 56 56 55 54 53 54 55 55 53 53 54 53 52 52 52 53 55 56 58 59 60 61
21 21 20 19 18 18 18 19 20 21 22 22 22 24 25 28 33 38 39 39 40 41 44 47 47 47 48 48 48 50 51 51 52 53 53 54 56 57 57 57 58 58 58 57 57 56 57 57 55 53 53 53 52 52 52 53 54 56 57 59 60 61 62
21 21 21 19 18 17 17 18 19 20 21 22 23 26 29 31 33 37 39 39 40 41 43 45 46 46 47 47 49 51 52 53 54 55 55 56 57 58 58 58 58 58 58 57 56 56 56 56 55 54 54 53 53 53 53 53 54 56 58 59 61 62 64
21 21 20 18 16 15 16 17 18 19 20 22 24 26 30 32 34 37 40 41 42 43 45 45 47 49 50 49 50 53 54 55 57 58 58 58 58 59 59 58 57 56 56 55 55 55 55 56 56 55 55 54 54 53 53 54 56 58 59 61 63 65 66
21 20 19 17 15 14 15 16 17 18 19 21 23 26 29 32 35 37 40 44 46 47 48 48 49 52 54 54 54 55 56 58 59 60 61 61 61 61 60 59 58 57 57 56 56 56 56 57 56 55 55 54 54 54 55 57 59 60 62 64 65 67 67
24 22 20 17 14 14 15 17 19 19 20 21 22 25 27 31 34 37 39 43 46 47 50 51 52 53 54 55 55 56 57 58 58 59 60 60 60 60 59 58 58 57 57 57 57 57 57 56 54 54 55 55 56 57 58 60 61 63 65 66 67 68 67
28 27 24 19 16 18 20 22 23 23 23 23 23 24 25 28 32 36 39 42 43 45 48 51 53 54 55 54 55 56 57 58 58 58 57 56 55 55 54 55 54 54 55 56 56 56 54 53 53 55 57 57 58 59 61 62 64 65 67 68 69 67 64
29 31 30 25 23 25 28 28 27 26 26 25 25 24 24 26 30 34 38 41 43 45 48 50 52 54 54 54 54 54 56 56 57 57 56 55 54 53 54 54 54 54 54 55 54 53 53 54 56 58 59 59 60 61 63 65 66 68 69 69 68 64 58
26 30 32 31 30 31 32 30 29 28 27 26 26 26 25 25 27 31 35 40 44 47 49 51 52 53 54 53 53 53 54 55 55 55 55 55 55 55 56 56 55 54 54 54 54 55 56 58 59 60 60 62 63 65 66 68 70 71 70 67 62 56 52
25 28 33 35 34 33 32 32 31 31 29 26 26 26 27 26 26 28 32 36 42 46 49 51 52 53 54 54 54 55 55 56 56 56 56 56 56 56 56 56 55 55 55 56 57 58 59 60 61 62 63 65 66 67 69 71 71 68 63 58 54 50 49
27 29 33 36 36 34 33 33 34 35 32 28 26 27 28 28 29 29 30 33 37 42 47 50 52 53 54 55 56 56 56 57 57 58 58 58 57 57 57 57 57 58 58 59 59 60 61 61 62 64 65 67 68 69 69 67 62 58 54 51 49 49 49
29 30 32 36 37 35 35 36 37 37 34 30 28 28 29 30 31 31 31 31 33 36 41 46 49 52 54 55 56 57 57 57 57 57 58 58 58 59 59 59 59 60 60 60 60 61 62 63 64 65 66 67 67 66 62 57 53 51 50 49 50 50 52
32 32 33 36 37 37 37 39 39 38 35 32 30 30 31 32 31 31 31 32 33 34 36 39 44 48 52 54 55 55 55 55 56 57 58 59 60 60 60 60 60 61 61 61 62 64 64 64 64 65 65 64 62 59 55 52 51 51 51 52 53 54 55
34 34 35 36 38 38 39 41 41 39 36 33 31 31 31 31 31 31 31 32 33 34 35 36 38 42 46 50 53 55 56 57 58 59 60 61 61 61 61 61 61 62 63 64 64 65 64 64 63 64 63 61 59 56 54 54 54 54 54 55 55 56 57
34 32 34 36 38 40 42 43 42 40 36 32 30 31 31 31 31 31 31 32 33 34 35 35 36 37 40 43 47 51 55 57 59 60 60 61 61 62 62 62 62 63 64 64 64 63 62 62 62 62 61 60 58 57 56 57 57 57 56 56 56 57 58
35 31 31 35 38 42 45 44 42 38 35 32 31 31 32 32 33 32 31 31 31 32 33 34 36 37 38 39 42 45 48 52 55 57 58 59 61 62 62 62 62 62 62 62 61 61 60 61 61 60 60 60 59 58 58 58 57 57 56 56 56 58 60
35 29 29 34 40 43 43 40 37 34 33 32 32 32 34 34 35 34 33 33 32 32 32 33 36 38 38 37 38 40 43 46 48 51 53 56 58 59 59 58 58 59 59 59 58 58 59 59 59 60 60 59 58 57 57 56 56 57 57 58 59 61 63

ECMWFFLT1_250_spd_168.txt.gz
Wind_Speed
30 30 30 30 30 30 31 33 34 36 37 38 39 41 41 41 42 43 44 45 45 46 45 45 43 41 38 35 34 32 31 30 32 36 38 39 38 38 38 37 35 33 32 31 32 32 32 32 32 33 34 36 37 38 39 41 42 42 42 41 41 42 43
29 29 29 29 29 30 31 32 33 34 35 36 37 38 40 40 41 41 42 43 44 45 45 45 44 42 40 37 35 32 29 28 31 34 38 40 40 40 39 37 37 35 34 33 34 34 35 35 35 35 36 37 38 39 41 43 43 43 43 42 42 43 43
29 29 28 29 29 30 31 31 32 33 33 33 34 36 37 38 39 40 40 41 42 43 44 44 44 44 42 39 36 32 27 28 29 28 33 39 39 39 40 38 37 36 35 35 36 37 38 37 37 37 37 38 39 41 42 43 44 44 43 43 43 43 42
28 28 28 28 29 29 30 30 30 30 30 31 32 33 34 35 36 37 38 39 40 41 42 43 44 44 43 40 38 35 30 32 33 28 30 38 38 39 40 39 38 37 37 37 37 38 39 38 38 38 39 40 41 42 42 43 44 44 44 43 43 42 41
27 27 27 28 28 28 28 28 28 27 28 28 29 30 32 33 34 34 35 36 38 39 40 42 42 43 43 41 39 38 35 35 36 33 32 36 37 39 41 40 39 38 37 38 38 39 39 39 39 39 40 41 41 41 41 42 43 43 43 43 42 41 41
27 27 27 27 27 27 27 27 27 26 26 27 27 28 29 30 31 32 33 34 35 37 38 39 40 40 40 37 38 40 39 38 39 39 38 38 39 40 40 39 39 38 37 38 38 39 40 40 40 40 41 41 40 40 41 41 41 42 43 43 41 41 42
26 26 26 26 27 27 27 27 27 27 26 27 27 27 27 27 28 29 30 31 32 34 35 36 38 37 34 32 34 38 40 41 41 42 43 43 44 43 42 41 40 39 38 38 38 39 40 41 41 40 40 40 40 41 41 41 42 43 43 42 41 41 42
26 26 26 26 26 26 26 26 26 26 26 26 27 27 27 26 26 26 27 28 29 29 31 34 35 34 32 32 33 36 39 41 43 44 44 44 45 45 44 43 42 41 40 38 38 40 41 41 41 40 40 41 41 42 42 42 43 44 43 41 41 42 43
26 26 26 26 25 25 25 25 25 24 24 24 25 26 25 25 25 24 24 24 25 26 28 31 30 30 32 33 34 35 37 39 42 45 45 44 44 45 45 45 44 42 41 40 40 41 42 42 41 41 40 41 42 42 43 43 44 44 43 41 41 43 43
26 25 25 25 24 24 24 24 23 23 22 21 22 22 23 23 22 22 21 19 20 24 26 24 23 26 31 33 33 34 35 36 38 42 44 45 46 47 49 48 45 41 39 38 39 39 40 40 40 40 40 41 42 42 43 44 44 43 42 42 43 43 43
24 24 24 23 22 22 22 22 22 20 20 19 18 17 18 18 18 18 16 13 16 23 24 19 19 25 30 33 34 36 36 36 37 38 41 44 46 47 48 46 43 40 39 38 38 38 39 40 40 41 42 42 43 43 44 44 44 43 42 43 44 44 43
22 22 22 22 21 20 20 20 19 19 18 15 13 15 18 17 16 15 11 8 13 23 24 20 21 27 32 34 35 35 35 36 39 40 41 42 44 45 45 44 43 42 42 41 41 41 42 42 43 44 44 44 44 44 44 45 44 44 43 43 44 44 45
19 20 20 20 20 19 18 18 17 17 15 10 11 20 23 20 18 16 12 11 17 24 27 26 26 29 33 37 37 34 30 31 37 41 42 42 43 44 45 45 44 44 45 45 44 45 45 44 45 45 45 45 45 45 45 45 45 45 44 44 45 46 47
16 17 18 18 18 17 17 16 15 15 11 6 13 22 21 19 19 18 15 14 17 22 27 30 29 31 34 36 37 36 31 28 31 35 37 38 38 40 40 41 41 42 43 44 45 45 45 45 45 45 44 44 45 45 46 46 46 46 46 46 47 47 48
14 15 16 17 17 16 15 14 14 14 10 9 15 18 17 19 19 18 17 16 17 21 26 29 31 34 36 36 36 36 33 31 31 33 36 36 35 34 34 35 37 39 40 42 43 43 42 43 43 42 43 44 45 47 48 48 49 48 48 47 47 47 47
13 14 15 16 16 15 14 13 14 13 10 12 18 18 19 20 19 17 17 16 17 20 23 25 28 32 35 35 34 34 33 31 31 33 34 34 35 34 34 36 38 40 41 42 43 42 42 42 42 43 45 47 49 51 52 51 50 49 48 47 46 47 48
13 14 14 14 14 14 13 13 14 13 12 15 19 18 17 18 16 15 15 15 16 18 20 22 25 28 30 29 30 32 33 33 31 30 30 30 31 33 36 39 41 43 44 44 44 44 45 46 46 47 48 51 53 54 54 52 50 48 47 47 48 49 51
13 14 13 13 13 13 13 13 14 14 14 15 15 14 14 13 11 11 12 12 13 15 18 21 22 24 24 24 26 29 31 32 32 32 33 33 33 33 34 38 41 45 46 46 46 46 46 47 48 50 52 54 55 55 53 51 49 48 49 50 51 52 52
13 13 13 12 12 12 12 12 13 14 14 13 12 13 13 10 9 10 10 10 11 14 18 20 20 20 21 22 25 27 27 27 29 33 36 36 38 38 38 38 40 44 46 46 46 47 48 49 51 52 54 55 55 54 52 51 50 51 52 52 52 52 52
13 13 12 11 10 10 10 11 12 14 14 12 12 13 12 10 10 10 11 12 13 15 17 19 20 21 22 24 28 29 28 27 29 33 36 38 40 42 44 44 45 47 49 50 50 51 52 53 54 55 56 56 55 53 52 51 52 52 52 52 51 50 50
14 13 12 11 9 8 8 9 11 14 14 11 12 13 14 13 13 13 14 16 17 17 18 20 23 25 25 28 30 31 30 31 32 32 34 38 41 44 46 48 49 51 52 53 53 54 55 56 56 56 56 56 54 52 52 52 52 52 51 50 50 49 50
15 14 13 12 11 9 8 8 10 13 13 10 8 9 11 13 14 16 17 20 21 21 22 25 26 27 28 29 31 31 31 32 33 34 35 39 42 44 47 49 51 53 54 54 55 55 56 56 56 56 56 54 53 52 52 52 51 51 50 50 50 51 51
16 15 15 14 12 11 10 10 11 13 13 8 4 4 6 9 11 13 16 20 22 22 24 27 29 29 30 30 30 30 30 31 33 36 39 41 44 47 51 55 56 55 55 56 56 56 56 56 55 54 53 52 52 52 52 52 52 52 52 52 52 52 52
17 17 17 16 15 13 12 12 13 14 13 9 6 5 6 7 8 9 11 15 18 20 22 25 29 32 34 35 35 34 34 35 37 40 43 46 49 53 56 58 58 57 56 57 57 56 56 56 55 53 52 52 53 53 53 53 53 53 53 54 53 53 52
19 19 20 19 18 17 15 14 15 15 14 12 10 9 8 8 8 9 9 10 12 15 19 23 27 31 35 37 38 39 40 41 43 45 47 50 53 54 56 57 58 57 57 58 58 58 57 57 56 55 55 55 55 55 55 55 54 55 55 55 55 54 53
20 21 21 21 21 20 18 17 17 17 16 15 15 14 14 13 12 11 11 11 11 11 13 17 20 24 28 32 34 37 40 42 44 46 48 50 51 53 54 56 57 57 58 58 58 59 59 58 58 57 57 57 57 56 56 56 56 56 57 56 55 53 51
21 21 21 21 22 21 20 20 20 20 20 20 21 21 19 18 16 15 14 14 14 13 13 13 14 17 19 23 26 29 32 35 38 41 44 46 48 50 52 54 55 56 57 57 58 58 58 58 59 59 59 58 57 56 56 56 57 57 56 55 53 52 51
22 22 22 22 22 22 22 22 22 23 23 23 24 24 24 22 21 19 18 17 16 16 16 16 16 17 18 20 22 23 24 26 29 32 35 37 38 40 43 45 46 48 49 51 53 54 54 55 55 55 55 55 54 54 55 56 57 57 55 53 52 52 53
25 25 24 24 24 24 22 20 19 21 23 25 25 26 26 26 25 24 23 21 19 19 19 19 20 20 21 21 21 20 21 22 24 26 27 27 28 29 31 32 34 36 38 40 41 43 44 45 47 48 50 51 52 53 55 57 57 57 56 54 54 55 56
27 27 27 27 27 26 22 18 17 19 20 22 24 25 26 27 27 27 27 26 24 21 21 22 22 22 22 22 21 20 21 21 22 23 24 25 26 28 29 31 32 34 35 37 38 40 42 44 47 49 52 54 55 56 59 60 61 60 59 57 57 58 58
29 29 29 30 29 28 25 23 22 22 23 23 23 24 26 27 27 28 29 29 27 24 23 24 24 23 22 21 21 20 21 22 23 25 26 28 30 32 33 34 35 36 37 38 39 41 42 44 46 49 51 54 56 58 61 63 63 61 60 59 59 59 58
31 31 32 32 31 29 28 26 25 25 27 28 27 27 28 27 28 29 30 30 28 27 27 27 26 24 23 22 21 22 23 26 28 30 32 34 37 38 38 38 38 39 39 40 40 41 42 42 44 45 48 50 52 54 57 58 59 59 59 58 58 57 56
32 33 34 34 33 31 31 30 30 30 31 31 30 30 30 29 29 29 31 31 31 30 31 31 29 27 27 26 26 28 30 33 35 37 39 42 44 45 44 43 42 42 42 42 42 42 42 42 42 43 44 46 48 50 52 54 55 56 57 57 57 57 57
33 34 36 36 34 33 33 33 33 33 33 33 32 31 32 33 33 32 32 33 33 34 34 33 32 32 32 31 32 34 37 39 41 44 47 48 49 48 47 46 45 44 43 43 42 42 42 42 43 43 43 44 45 47 48 50 52 54 55 56 57 58 58
36 38 39 38 37 37 37 36 36 36 35 34 33 32 33 34 34 33 33 34 34 35 35 35 35 35 35 36 38 40 43 46 48 50 50 50 50 49 48 47 46 45 44 42 42 43 43 44 44 43 44 45 46 46 47 48 50 52 53 55 56 57 58
39 40 41 40 39 39 39 38 38 38 37 35 34 32 32 33 33 32 33 34 35 35 36 36 37 37 38 40 43 45 48 50 50 50 50 51 51 50 50 49 48 46 45 45 45 47 48 47 45 44 44 46 48 49 50 50 51 51 52 53 55 56 58
40 42 42 39 38 39 39 39 38 37 36 34 33 31 31 31 30 29 30 32 34 35 36 37 39 40 42 45 46 48 49 50 50 51 52 52 52 51 51 51 49 48 48 48 50 52 52 50 48 46 46 47 49 51 53 53 54 54 54 55 56 58 61

ECMWFFLT1_250_spd_174.txt.gz
Wind_Speed
35 34 35 36 35 34 34 34 34 34 34 33 31 30 28 27 27 26 26 27 27 28 28 29 30 31 32 32 33 34 35 35 36 37 38 37 36 35 34 30 29 30 32 33 34 33 31 30 29 29 30 29 28 28 28 27 28 28 28 29 30 31 33
33 34 35 35 34 34 34 34 34 33 32 31 29 27 26 26 25 25 25 25 26 26 26 27 28 29 30 31 31 33 34 34 34 36 36 36 36 36 35 33 32 33 34 34 35 33 30 27 26 26 27 27 27 27 28 28 29 29 29 30 31 32 35
32 34 34 33 33 33 33 33 33 32 31 29 27 26 24 24 23 23 23 24 24 25 25 26 26 27 27 28 29 31 31 32 33 34 35 35 36 37 37 36 35 35 35 36 36 33 28 25 24 24 24 24 25 26 27 28 29 29 30 30 31 34 37
33 33 33 32 32 32 32 33 32 31 29 28 25 23 22 22 22 22 23 23 24 25 26 26 25 25 25 26 27 28 29 30 31 33 34 34 34 36 37 37 37 37 36 37 36 34 30 27 24 22 21 22 23 24 26 28 29 29 30 31 33 35 38
32 32 31 31 31 32 32 32 31 29 28 25 22 20 20 21 22 23 23 23 24 25 25 25 23 22 22 22 23 24 25 27 29 31 32 32 33 34 35 37 38 39 39 39 38 37 35 31 27 25 23 23 24 25 27 28 28 29 31 32 34 37 39
31 31 31 30 31 31 31 31 30 28 25 22 19 18 20 22 23 22 21 21 21 20 19 18 17 16 16 16 17 19 20 22 25 28 30 31 32 32 33 35 38 39 41 41 40 38 37 35 33 32 30 29 28 29 30 30 30 30 31 33 35 37 39
30 30 30 30 31 31 31 29 28 25 22 18 17 19 21 22 21 20 18 18 17 15 13 13 13 13 13 13 14 15 17 18 20 24 27 29 31 31 32 34 36 39 42 42 41 41 39 38 38 38 36 35 34 34 33 33 33 32 32 33 35 37 39
29 29 29 30 30 30 29 28 25 22 19 17 19 21 22 21 20 17 16 16 16 13 11 11 13 14 13 13 14 16 17 18 18 20 23 26 28 29 30 32 35 38 40 40 40 41 40 40 40 40 39 39 37 36 35 34 33 33 33 34 35 38 39
28 29 29 29 29 29 28 26 23 19 17 18 20 21 21 21 19 16 15 17 18 16 13 12 13 14 13 13 14 16 18 20 19 20 21 22 25 27 28 29 31 33 35 36 38 40 40 41 41 40 39 39 38 37 36 34 33 33 34 35 37 39 41
27 28 28 28 28 27 26 23 21 18 18 19 19 20 22 20 18 16 17 18 18 17 15 14 16 16 15 14 14 16 19 20 20 20 21 21 22 25 25 25 24 25 27 29 32 35 37 38 39 39 38 38 37 37 36 33 32 33 35 37 40 43 44
27 28 28 27 27 25 23 22 19 18 19 19 18 20 22 20 18 17 18 18 17 16 16 18 20 20 19 18 17 17 18 19 19 20 21 21 21 22 23 23 22 22 23 24 26 28 30 31 33 34 35 35 35 34 33 32 33 35 38 41 43 44 43
27 27 27 26 24 23 22 20 18 18 19 18 18 20 22 20 19 19 19 18 17 17 19 21 22 22 22 22 22 21 20 21 21 21 22 22 21 21 23 25 25 24 24 26 27 27 28 29 30 32 32 32 32 32 32 34 36 39 40 42 43 43 42
27 26 25 24 22 22 21 19 18 18 18 17 18 20 21 21 20 21 22 20 20 20 22 24 23 22 23 24 25 25 24 24 23 23 23 23 21 20 21 24 25 25 25 26 26 26 26 27 28 30 31 32 33 33 34 36 37 39 40 41 42 43 44
25 24 24 22 21 21 20 18 17 18 18 17 17 20 21 21 21 23 24 23 22 22 23 24 24 23 24 25 26 28 28 28 28 27 25 23 21 19 20 21 22 22 23 24 24 24 25 27 30 32 34 35 36 36 37 37 38 40 41 42 44 45 46
23 23 22 20 20 20 19 18 17 17 17 17 17 20 21 22 22 23 24 24 24 23 23 24 24 23 23 25 27 29 30 29 29 28 26 24 21 20 20 21 22 23 24 26 27 29 30 31 32 34 36 37 38 38 39 40 41 41 42 43 45 47 47
23 23 21 19 19 20 18 17 17 17 17 17 17 19 21 22 22 22 23 23 24 24 24 23 22 21 21 22 24 27 29 29 28 28 27 26 24 21 20 22 24 25 26 29 31 32 33 33 34 35 36 37 38 39 40 40 41 41 43 45 47 49 50
24 22 19 18 19 19 17 17 17 17 17 17 17 19 20 21 22 22 23 23 25 26 24 22 20 19 18 18 18 21 24 26 27 27 27 27 25 22 19 20 22 24 25 27 29 31 33 34 35 35 36 37 38 38 39 41 42 43 45 48 50 52 53
23 21 18 18 19 18 16 16 16 17 17 17 17 18 19 20 21 22 22 23 24 25 24 23 20 16 15 15 16 18 19 20 21 22 21 21 20 19 19 21 22 23 24 25 26 29 31 32 33 35 36 37 38 40 41 43 45 46 49 51 53 54 55
22 20 18 18 19 17 15 15 16 16 16 16 16 16 17 19 20 21 21 21 21 22 22 21 18 16 15 15 16 18 18 17 17 15 14 15 16 16 19 23 25 26 26 27 28 28 29 31 34 36 38 39 40 42 43 45 48 50 52 53 54 54 54
21 19 18 18 18 16 15 15 15 14 14 15 15 16 16 17 19 21 21 20 19 19 19 18 18 17 16 16 17 19 19 18 17 16 16 17 18 19 21 24 26 28 29 30 31 32 33 34 35 38 42 43 44 46 47 49 50 51 51 50 49 49 51
21 19 18 18 18 16 15 15 14 14 14 15 16 16 16 16 18 19 20 19 17 17 17 18 19 20 20 20 21 22 21 20 20 20 20 21 21 21 23 26 28 30 30 31 33 33 34 35 36 39 42 44 47 51 51 50 48 46 44 43 44 45 48
21 20 19 19 17 16 16 15 14 15 15 16 17 17 16 16 17 17 16 14 13 13 14 15 17 19 20 21 23 24 24 23 23 22 22 23 23 24 26 28 29 31 31 32 33 32 32 34 36 38 39 42 47 49 47 43 42 41 41 42 43 44 45
22 21 20 19 18 18 17 16 15 16 16 17 18 18 16 16 16 15 13 10 9 8 9 11 12 14 16 18 20 22 23 25 26 26 26 26 26 27 29 30 31 31 32 34 35 36 36 36 38 39 41 42 43 41 39 39 40 41 42 43 44 44 44
23 22 21 20 19 19 18 17 16 16 17 18 19 19 17 16 16 16 14 12 10 10 10 10 12 13 14 16 17 18 19 22 25 27 29 29 30 31 31 32 33 33 34 35 36 37 38 39 40 40 38 36 35 36 39 41 42 42 43 44 45 45 45
24 23 22 21 21 20 19 17 16 17 18 18 19 19 18 17 17 18 18 17 15 14 14 14 14 15 15 16 16 17 17 18 19 22 24 26 28 29 30 31 32 33 34 34 35 35 36 35 33 30 28 30 34 39 42 42 42 43 45 46 45 45 44
25 25 23 22 22 21 19 18 17 17 17 18 18 18 18 18 19 20 21 22 21 20 20 20 20 19 18 18 18 18 19 19 19 19 20 21 23 25 26 27 28 28 28 28 28 28 27 26 24 24 28 33 38 42 43 44 45 47 47 47 46 45 45
27 26 24 23 21 21 20 19 18 18 18 18 18 17 17 17 19 21 23 25 26 26 26 26 26 25 24 22 22 22 22 22 22 22 23 23 24 25 26 26 25 25 26 26 26 25 24 24 26 29 33 37 41 44 46 48 49 49 49 48 47 47 47
28 27 25 23 21 21 22 21 21 20 19 20 20 19 19 19 20 21 23 25 27 28 29 30 30 29 28 27 26 25 25 26 26 26 26 26 27 27 27 27 27 27 28 28 28 28 28 29 31 34 37 40 44 47 50 51 51 51 50 49 49 50 50
28 27 25 23 22 23 24 23 23 22 21 21 21 21 21 22 22 22 23 24 25 26 26 27 27 27 27 27 26 26 26 28 29 30 30 30 30 29 29 29 29 30 31 31 31 31 33 34 36 39 41 44 46 50 52 53 53 52 52 53 53 53 53
28 27 26 25 24 25 25 25 24 23 22 22 23 23 23 24 26 25 25 24 25 25 24 25 26 26 26 26 26 26 27 28 29 31 32 33 33 32 32 31 31 32 32 33 34 35 36 38 41 44 45 47 50 53 55 55 55 55 56 56 57 57 57
28 29 29 28 27 27 27 26 25 24 24 25 25 25 25 27 29 29 28 27 27 28 29 28 28 28 29 30 30 29 29 30 30 32 33 34 35 35 34 34 33 33 33 35 36 38 41 44 47 48 49 51 53 55 56 57 57 57 58 59 59 60 60
31 32 32 31 29 28 28 27 25 25 26 28 29 29 30 32 32 31 30 30 30 31 32 32 32 32 33 34 34 33 32 32 32 32 32 33 34 34 35 35 35 36 37 39 41 44 46 48 50 51 52 54 57 58 58 59 59 59 60 61 61 62 62
33 34 33 32 31 30 29 28 27 28 29 31 33 34 35 35 32 30 30 32 32 33 34 35 35 34 34 35 35 35 34 33 32 31 31 31 32 34 35 37 39 41 43 45 46 48 49 50 52 54 56 58 59 60 60 60 61 61 62 63 63 64 65
34 34 33 33 32 31 29 29 29 30 32 33 34 37 37 34 31 30 31 33 34 35 36 37 37 37 37 37 38 38 37 35 34 34 35 35 36 37 39 42 44 46 47 49 49 49 51 53 55 57 59 60 61 62 62 63 63 63 64 65 66 67 67
35 35 35 35 34 32 31 31 31 32 34 35 37 38 37 33 32 32 34 35 37 37 38 38 39 40 41 41 41 40 39 39 39 40 41 42 42 43 44 46 47 49 49 50 51 52 54 57 59 60 61 63 63 64 64 65 66 66 66 68 69 70 70
37 36 36 36 36 35 35 35 35 36 37 37 37 37 36 34 33 34 35 37 39 40 40 39 39 40 41 41 41 40 41 42 43 44 45 45 46 46 47 48 49 50 51 52 54 56 59 61 62 62 64 64 64 65 66 68 69 69 70 71 72 72 72
38 37 37 37 37 37 36 37 38 39 41 41 38 37 36 36 36 37 38 40 42 42 41 39 39 40 40 41 41 42 43 44 45 46 47 47 48 48 48 49 50 51 53 55 58 61 62 63 64 65 66 66 66 67 69 70 71 72 74 75 75 75 75

ECMWFFLT1_250_spd_180.txt.gz
Wind_Speed
32 33 33 34 34 33 32 31 32 34 35 36 37 37 39 40 39 37 36 35 34 33 32 31 30 29 29 28 27 26 25 24 24 23 23 25 25 24 24 25 27 28 29 29 29 30 31 33 34 35 37 37 36 35 35 35 34 33 31 30 33 34 32
34 33 33 34 33 32 31 33 34 36 36 36 36 38 39 39 37 35 34 33 33 31 30 29 29 28 28 27 25 25 24 23 22 22 21 23 23 22 22 22 22 23 24 26 27 28 30 32 33 35 37 38 37 36 35 36 36 35 32 31 33 32 30
35 34 34 34 33 32 33 35 36 36 35 34 36 38 38 36 35 33 33 32 32 30 29 28 28 27 26 25 24 23 21 20 20 19 18 19 20 18 18 18 17 18 20 22 24 27 30 32 33 35 37 37 38 38 34 34 35 35 33 32 33 32 31
36 34 34 33 33 33 34 35 36 35 33 34 36 37 35 34 32 31 31 31 30 28 27 27 27 26 25 24 23 20 18 16 16 15 13 14 16 15 14 15 16 17 18 20 23 26 29 32 33 35 37 37 38 40 37 34 35 35 34 33 32 32 31
35 34 34 33 33 34 34 35 34 33 32 35 36 35 33 32 30 30 31 30 28 27 26 26 26 26 25 23 21 17 14 14 13 11 11 13 16 16 14 13 14 16 18 19 22 24 25 28 31 33 36 37 38 40 39 37 36 36 36 35 33 33 33
36 34 34 33 33 33 34 34 33 32 33 35 34 32 31 29 29 29 29 28 27 25 25 26 26 25 24 22 19 15 13 13 12 11 12 14 15 16 17 15 13 14 16 18 20 23 23 24 27 30 34 36 38 40 39 38 38 37 37 37 36 37 38
37 36 34 33 32 33 33 33 32 32 34 33 32 31 29 27 28 29 28 27 25 24 24 26 26 25 23 21 17 14 13 14 14 14 14 14 13 14 16 16 14 14 15 16 17 21 24 26 28 30 32 34 36 39 39 38 38 38 38 38 38 38 40
38 36 34 34 33 32 32 32 32 32 33 32 30 29 27 26 27 27 26 25 23 23 24 25 26 24 22 20 17 14 14 15 15 15 14 13 13 14 14 15 15 16 18 17 16 19 25 29 30 31 31 32 33 35 36 36 37 37 37 38 38 39 40
38 37 35 34 32 31 32 33 33 32 32 30 28 26 24 25 26 25 24 23 23 23 24 24 25 23 21 19 17 15 16 16 14 13 14 15 16 16 16 15 16 18 19 18 18 20 25 29 31 31 29 29 29 31 32 32 33 34 35 36 37 38 38
38 37 34 31 31 32 33 33 31 31 31 28 26 24 23 24 24 24 23 22 22 22 23 24 23 23 21 19 18 17 17 17 15 15 16 17 18 18 19 18 18 19 18 19 22 23 25 29 31 29 26 25 25 26 27 28 28 30 32 33 33 33 31
38 35 31 30 32 33 32 31 30 30 29 26 24 23 23 23 24 23 22 21 21 21 22 22 22 22 21 20 18 17 18 18 16 17 18 19 20 20 21 21 21 20 18 20 23 23 25 29 30 26 21 20 21 22 23 23 24 25 27 27 27 27 28
36 32 30 32 33 32 31 31 30 29 28 26 26 25 24 24 24 23 21 20 20 20 21 21 21 21 21 20 18 17 19 20 19 18 18 18 21 23 23 23 23 21 19 20 20 21 23 26 26 22 20 21 23 23 23 23 23 24 24 24 25 27 30
34 30 31 33 34 32 31 31 30 28 27 28 28 27 25 25 24 22 21 20 20 20 20 20 20 20 20 20 19 18 19 21 21 21 18 16 20 25 25 24 22 22 22 21 18 18 21 22 22 20 22 25 26 26 26 24 23 23 23 24 27 30 31
32 31 32 34 34 33 31 30 30 28 28 29 28 26 24 24 24 22 21 21 21 21 21 21 20 20 20 19 19 20 20 22 22 21 19 17 20 24 26 24 22 21 22 22 20 20 22 23 23 24 25 26 26 26 26 25 24 25 27 28 29 30 32
31 32 34 34 34 32 30 28 28 28 28 28 28 26 23 22 22 21 21 21 21 21 21 21 20 19 19 19 19 20 22 23 22 20 18 17 18 21 23 23 23 21 21 24 26 26 26 27 29 31 30 29 28 28 28 28 28 29 31 31 30 31 33
32 33 34 34 32 31 29 26 26 28 28 28 28 27 24 23 21 20 21 21 22 22 21 21 19 18 17 18 18 19 21 23 22 20 18 16 15 18 21 22 23 22 22 24 27 28 30 32 34 35 33 31 30 29 29 31 31 30 32 33 32 31 32
32 33 34 33 32 31 28 26 26 27 27 27 28 28 27 24 20 19 21 21 22 21 20 19 18 17 17 17 17 18 19 21 21 20 19 16 14 16 19 22 23 23 23 24 25 28 31 33 35 35 33 32 31 30 30 31 32 32 33 33 32 31 30
32 34 33 32 32 30 26 24 25 27 26 26 26 27 27 24 19 19 20 21 21 19 17 17 16 16 17 16 16 16 17 18 19 19 19 17 16 16 18 20 22 24 25 26 27 27 29 30 31 32 31 30 30 31 32 34 35 34 33 32 32 31 29
33 33 32 30 29 27 24 23 24 26 27 27 27 27 28 25 21 19 20 20 19 17 15 15 15 15 15 14 14 14 15 16 16 18 19 19 18 18 19 20 21 24 26 27 28 28 27 28 30 31 30 30 32 33 35 35 36 34 33 32 34 34 31
33 32 30 29 28 26 24 24 24 26 28 28 28 30 31 28 22 19 19 19 18 15 13 13 13 13 13 12 12 13 14 15 15 17 18 18 17 17 17 18 20 23 25 26 26 27 27 28 29 30 30 31 33 33 33 34 35 35 35 35 36 35 33
32 31 28 27 28 26 25 24 25 28 29 28 28 31 33 29 21 18 18 17 16 14 13 12 12 11 11 10 10 11 13 14 14 15 16 16 16 16 17 17 19 21 23 24 25 27 28 28 29 30 30 30 32 34 34 35 36 36 36 36 34 33 32
32 30 27 27 28 27 26 24 24 27 27 26 26 29 30 26 19 17 17 16 15 14 13 12 11 11 11 11 11 11 12 14 15 16 17 18 18 19 19 20 20 20 21 23 24 26 27 28 29 30 31 31 32 33 33 33 33 33 32 30 29 30 30
32 29 27 27 28 27 25 23 22 25 25 23 24 26 27 24 18 16 17 16 15 15 14 13 13 13 13 14 14 14 15 17 18 19 20 21 21 22 22 23 23 23 23 24 24 25 26 27 27 28 30 31 31 30 29 29 29 28 27 27 28 30 32
32 29 27 28 27 25 24 21 20 21 21 21 23 23 22 20 17 16 17 17 16 16 16 16 15 16 17 18 19 19 20 21 23 23 24 25 25 26 27 27 27 27 27 27 27 28 29 29 29 29 30 31 31 30 29 29 29 28 28 29 30 32 34
32 29 28 28 27 25 23 21 19 18 18 20 22 20 16 16 16 18 19 18 18 17 18 18 18 18 19 21 22 24 24 25 27 28 28 28 28 28 28 29 29 29 29 30 30 31 31 32 32 32 32 32 32 32 32 32 32 32 32 32 33 35 38
33 31 30 29 27 26 25 24 21 18 18 21 21 18 16 16 18 20 21 20 19 19 19 19 19 19 20 21 23 25 26 26 26 27 27 27 26 26 26 27 28 28 28 29 30 31 32 34 35 35 35 35 35 35 35 35 35 34 35 36 38 40 42
34 32 31 30 28 27 28 27 23 20 21 22 21 19 18 18 20 22 23 22 20 19 20 20 19 19 20 21 23 25 26 26 26 26 26 26 26 26 27 27 28 29 30 31 32 33 34 36 37 38 38 37 37 37 36 36 36 37 39 41 42 43 44
35 33 32 31 30 30 30 28 24 23 23 23 21 21 20 21 23 25 25 24 22 20 21 21 20 20 21 23 24 26 26 26 27 27 27 28 28 28 29 30 31 32 33 34 34 34 35 37 38 39 39 38 37 37 38 38 40 43 44 44 44 45 46
35 34 33 33 32 31 30 28 26 24 23 22 22 22 22 24 26 27 27 26 23 22 22 22 23 24 26 27 27 27 27 27 27 27 28 28 29 29 30 32 33 34 35 36 35 36 37 37 38 38 38 38 38 40 41 43 45 45 45 45 46 48 50
36 35 35 34 33 33 31 28 26 23 21 21 22 22 24 27 29 30 28 27 25 24 25 26 26 27 29 29 29 29 29 29 29 29 29 28 28 30 31 33 35 37 37 37 37 37 38 38 38 39 40 41 43 44 45 45 45 45 46 48 50 52 54
37 37 36 35 35 35 33 30 27 24 22 24 25 25 28 31 31 30 30 29 29 28 29 29 29 30 30 30 30 31 31 32 32 32 31 30 30 32 34 36 37 37 37 36 36 37 38 39 40 41 43 44 44 44 44 45 46 47 50 52 53 55 57
38 38 38 37 37 38 36 32 30 29 28 27 27 29 32 33 32 32 32 32 32 32 32 32 32 32 32 33 33 33 34 34 35 35 36 35 35 36 38 39 39 38 36 35 35 36 38 40 41 42 43 43 44 44 45 46 48 50 52 54 56 58 61
39 39 40 39 39 40 38 33 32 34 32 29 30 34 35 35 34 34 34 35 35 34 34 33 33 33 34 35 35 36 37 37 37 37 38 38 39 40 41 41 40 38 36 35 37 39 41 43 43 42 42 43 45 47 48 49 51 53 55 57 60 63 66
40 40 41 41 40 41 40 36 35 37 37 38 39 39 38 37 37 36 37 36 36 36 36 35 34 35 36 38 39 40 41 41 40 40 40 40 42 44 43 41 39 38 38 39 41 44 46 47 45 43 43 46 48 50 51 52 53 55 58 61 65 68 69
41 41 41 42 41 41 42 43 42 43 44 44 44 41 40 39 38 38 38 38 38 39 38 37 36 38 39 41 42 43 43 42 42 42 41 42 44 43 40 38 40 42 43 44 46 47 48 48 46 44 46 49 51 52 53 54 57 60 63 67 69 70 70
42 41 41 41 41 41 43 44 45 46 46 45 43 42 41 40 38 39 40 40 41 41 40 38 39 40 42 42 42 43 42 41 40 40 41 42 43 41 39 40 43 45 47 48 50 51 51 49 47 47 50 51 52 54 56 59 63 66 68 70 70 71 72
41 41 41 41 41 42 43 44 45 45 45 44 43 42 41 40 40 41 41 42 43 43 41 40 42 43 43 43 43 43 42 40 40 40 40 40 42 43 43 45 47 48 50 52 53 54 53 52 51 52 53 54 55 59 63 66 68 70 70 70 71 73 75